sat.trackr.live / text

‹ back to catalog

LEMUR-2-STELLA

NORAD 60533 · 2024-149BT

PAYLOAD ACTIVE UNKNOWN

§ Identity

Operator
Country
US
Launch date
2024-08-16
Launch site
AFWTR
Launch vehicle
Mass (kg)
RCS (m²)

Purposes: earth_obs

External: N2YO · Heavens-Above · Gunter

§ Orbital elements

Epoch: 2026-05-25T04:14:29.687136Z

Period
95.29 min
Inclination
97.6732°
Eccentricity
0.0002011
Mean motion
15.11219344 rev/d
Perigee alt
531.1 km
Apogee alt
533.9 km
Semi-major
6,910.6 km
B*
7.2612e-4
RAAN
227.5414°
Arg perigee
112.4773°
Mean anomaly
247.6669°
Rev number
9,702

§ Raw data

LEMUR-2-STELLA1 60533U 24149BT  26145.17673249  .00012147  00000+0  72612-3 0  99992 60533  97.6732 227.5414 0002011 112.4773 247.6669 15.11219344 97026

JSON: /api/v1/satellites/60533 · /tle

For live sub-satellite position, see the globe view (requires WebGL).

§ Visibility from observer

Set your observer location to see the next 7 days of passes ≥ 10°. The values pass through the URL so the page stays shareable.

No JS? Fill the form by hand. The geolocation button needs JavaScript.

§ Radio — SatNOGS DB

ModeDescriptionDownlinkUplink
FM Mode U - Transmitter 402.790 MHz

1 transmitter · refreshed weekly from db.satnogs.org